Location: Arena
(42.5007°N, 9.4650°E)
Time: 22:23:13
(UTC+00:00)

Cosmos 2154 Rocket - Pass Details

Date: 09 April 2020
Orbit: 965 x 997 km, 82.9° (Epoch: 05 June)

Event Time Altitude Azimuth Distance (km) Brightness Sun altitude
Rises 19:24:22 0° 349° (N) 3,727 7.6 -15.9°
Reaches altitude 10° 19:26:55 10° 348° (NNW) 2,771 6.9 -16.3°
Maximum altitude 19:33:14 69° 266° (W) 1,056 4.3 -17.3°
Drops below altitude 10° 19:39:28 10° 184° (S) 2,736 6.1 -18.3°
Enters shadow 19:41:49 - 182° (S) 3,619 6.7 -18.7°
